Starlink 33883

operational
NORAD ID: 63781 Int'l Des: 2025-091 Owner: SPXS Country: US Constellation: starlink
LEOCIRCULAR

Über Starlink 33883

Beschreibung wird geladen...

Live-Position

3D-Globus wird geladen...

Nächste Überflüge

Höhenverlauf

Altitude vs Time

uPlot chart will show altitude changes over time

Zweizeiliger Elementsatz

1 63781U 25091G 25354.79318544 .00022194 00000-0 81301-3 0 9996
2 63781 43.0059 138.3053 0002611 298.6712 61.3877 15.27603805 36835
Epoch: 20. Dez. 2025 • Age: 10 hours

Aktueller Status

Höhe 484.6 km
Geschwindigkeit 7.62 km/s
Subsatellitenpunkt -7.66°S, 154.82°E
Startdatum 2. Mai 2025
Alter 0.6 years
Typ internet

Technische Details

Klassifizierung Payload
Masse 575.00 kg
Trockenmasse 530.00 kg
Gesamtmasse 575.00 kg
Länge 0.30 m
Durchmesser 4.10 m
Spannweite 29.00 m
Form Box + pan
Hersteller SPXS
Bus-Typ Starlink V2MO
Phasenstatus In Orbit
Besitzer/Staat SPXS/US

Große Konstellationen

Loading constellations...